Weather History for Marysville, OH

Change the Weather History Date:

Sunday, January 6, 2013

  Actual Average (KDLZ) Record (KDLZ)
Temperature  
Mean Temperature 30 °F -  
Max Temperature 36 °F 33 °F 66 °F (1946)
Min Temperature 25 °F 17 °F -10 °F (1981)
Degree Days  
Heating Degree Days 34    
Moisture  
Dew Point 26 °F    
Average Humidity 80    
Maximum Humidity 93    
Minimum Humidity 71    
Precipitation  
Precipitation 0.01 in - - ()
Sea Level Pressure  
Sea Level Pressure 30.08 in    
Wind  
Wind Speed 10 mph (WSW)    
Max Wind Speed 20 mph    
Max Gust Speed 26 mph    
Visibility 8 miles    
Events      
Averages and records for this station are not official NWS values.
T = Trace of Precipitation, MM = Missing Value Source: NWS Daily Summary

Daily Weather History Graph

Daily Weather History Graph

Search for Another Location

Airport:

Trip Planner

Search our weather history database for the weather conditions in past years. The results will help you decide how hot, cold, wet, or windy it might be!

Date:

Astronomy

Jan. 06, 2013 Rise Set
Actual Time 7:56 AM EST 5:23 PM EST
Civil Twilight 7:25 AM EST 5:53 PM EST
Nautical Twilight 6:51 AM EST 6:27 PM EST
Astronomical Twilight 6:19 AM EST 7:00 PM EST
Moon 2:09 AM EST (1/6) 12:49 PM EST (1/6)
Length of Visible Light 10h 27m
Length of Day
9h 26m
Waning Crescent, 33% of the Moon is Illuminated
Jan 6
Waning Crescent
Jan 11
New
Jan 18
First Quarter
Jan 26
Full
Feb 3
Last Quarter

Hourly Weather History & Observations

Time (EST) Temp. Windchill Dew Point Humidity Pressure Visibility Wind Dir Wind Speed Gust Speed Precip Events Conditions
12:14 AM 32.5 °F 24.2 °F 24.1 °F 71% 30.12 in 10.0 mi WSW 10.4 mph - N/A   Mostly Cloudy
12:33 AM 32.2 °F 23.8 °F 23.9 °F 72% 30.11 in 10.0 mi WSW 10.4 mph - N/A   Scattered Clouds
12:54 AM 32.0 °F 24.2 °F 23.9 °F 72% 30.10 in 10.0 mi SW 9.2 mph - N/A   Mostly Cloudy
1:14 AM 32.0 °F 24.8 °F 23.9 °F 72% 30.10 in 10.0 mi WSW 8.1 mph - N/A   Mostly Cloudy
1:34 AM 31.5 °F 24.9 °F 23.9 °F 74% 30.09 in 10.0 mi SW 6.9 mph - N/A   Overcast
1:54 AM 31.1 °F 23.7 °F 23.7 °F 74% 30.09 in 10.0 mi SSW 8.1 mph - N/A   Overcast
2:13 AM 31.3 °F 23.9 °F 24.4 °F 76% 30.08 in 10.0 mi SW 8.1 mph - N/A   Overcast
2:34 AM 31.6 °F 23.7 °F 24.6 °F 75% 30.08 in 10.0 mi SW 9.2 mph - N/A   Overcast
2:54 AM 31.8 °F 24.6 °F 24.8 °F 75% 30.08 in 10.0 mi SW 8.1 mph - N/A   Overcast
3:14 AM 32.0 °F 24.8 °F 24.8 °F 75% 30.07 in 10.0 mi SSW 8.1 mph - N/A   Overcast
3:34 AM 31.5 °F 24.9 °F 24.8 °F 76% 30.07 in 10.0 mi SSW 6.9 mph - N/A   Overcast
3:54 AM 30.9 °F 24.3 °F 25.0 °F 79% 30.06 in 10.0 mi SSW 6.9 mph - N/A   Overcast
4:14 AM 31.1 °F 24.5 °F 25.3 °F 79% 30.05 in 10.0 mi SSW 6.9 mph - N/A   Overcast
4:54 AM 32.0 °F 24.2 °F 25.9 °F 78% 30.04 in 10.0 mi SW 9.2 mph - N/A   Overcast
5:14 AM 32.2 °F 24.4 °F 26.1 °F 78% 30.03 in 10.0 mi SW 9.2 mph - N/A   Overcast
5:34 AM 32.9 °F 25.3 °F 26.2 °F 76% 30.03 in 10.0 mi SW 9.2 mph - N/A   Overcast
5:54 AM 32.5 °F 24.8 °F 26.4 °F 78% 30.02 in 10.0 mi SW 9.2 mph - N/A   Overcast
6:14 AM 32.5 °F 24.8 °F 26.6 °F 79% 30.02 in 10.0 mi SW 9.2 mph - N/A   Overcast
6:34 AM 32.2 °F 23.8 °F 26.8 °F 80% 30.02 in 10.0 mi SW 10.4 mph - N/A   Overcast
6:54 AM 32.7 °F 25.0 °F 27.0 °F 79% 30.02 in 10.0 mi SW 9.2 mph - N/A   Overcast
7:14 AM 32.9 °F 25.9 °F 27.1 °F 79% 30.02 in 10.0 mi SSW 8.1 mph - N/A   Overcast
7:34 AM 32.9 °F 25.3 °F 27.1 °F 79% 30.03 in 10.0 mi SW 9.2 mph - N/A   Overcast
7:54 AM 33.1 °F 24.9 °F 27.3 °F 79% 30.02 in 10.0 mi SSW 10.4 mph - N/A   Overcast
8:14 AM 33.3 °F 24.6 °F 27.5 °F 79% 30.03 in 10.0 mi SSW 11.5 mph - N/A   Overcast
8:34 AM 33.6 °F 26.2 °F 27.5 °F 78% 30.03 in 10.0 mi SW 9.2 mph - N/A   Overcast
8:54 AM 33.8 °F 24.8 °F 27.9 °F 79% 30.03 in 10.0 mi SSW 12.7 mph - N/A   Overcast
9:14 AM 34.0 °F 25.5 °F 28.0 °F 79% 30.03 in 10.0 mi SSW 11.5 mph - N/A   Overcast
9:34 AM 34.2 °F 25.7 °F 28.0 °F 78% 30.03 in 10.0 mi SSW 11.5 mph - N/A   Overcast
9:54 AM 34.2 °F 26.2 °F 28.4 °F 79% 30.03 in 10.0 mi SW 10.4 mph - N/A   Overcast
10:14 AM 34.7 °F 26.9 °F 28.4 °F 78% 30.03 in 10.0 mi SW 10.4 mph - N/A   Overcast
10:34 AM 34.7 °F 28.1 °F 28.9 °F 79% 30.03 in 10.0 mi SW 8.1 mph - N/A   Overcast
10:54 AM 35.1 °F 27.4 °F 28.9 °F 78% 30.03 in 10.0 mi SW 10.4 mph - N/A   Overcast
11:14 AM 35.2 °F 27.6 °F 28.9 °F 78% 30.03 in 10.0 mi SW 10.4 mph - N/A   Overcast
11:34 AM 35.6 °F 28.6 °F 28.9 °F 77% 30.02 in 10.0 mi SW 9.2 mph - N/A   Overcast
11:54 AM 35.6 °F 28.6 °F 28.9 °F 77% 30.01 in 10.0 mi SW 9.2 mph - N/A   Overcast
12:14 PM 35.6 °F 28.6 °F 29.3 °F 78% 30.00 in 10.0 mi SW 9.2 mph - N/A   Overcast
12:34 PM 35.8 °F 28.3 °F 29.3 °F 77% 29.99 in 10.0 mi SW 10.4 mph - N/A   Overcast
12:54 PM 35.8 °F 29.4 °F 29.3 °F 77% 29.99 in 10.0 mi SW 8.1 mph - N/A   Overcast
1:14 PM 36.0 °F 28.5 °F 29.3 °F 77% 29.99 in 10.0 mi WSW 10.4 mph - N/A   Overcast
1:34 PM 36.0 °F 29.0 °F 29.3 °F 77% 29.99 in 10.0 mi WSW 9.2 mph - N/A   Overcast
1:54 PM 35.6 °F 28.6 °F 29.7 °F 79% 29.99 in 10.0 mi West 9.2 mph - N/A   Overcast
2:14 PM 34.7 °F 26.9 °F 30.7 °F 85% 30.00 in 2.0 mi West 10.4 mph - N/A   Overcast
2:33 PM 34.2 °F 28.2 °F 31.8 °F 91% 30.00 in 2.5 mi West 6.9 mph - N/A   Overcast
2:54 PM 33.8 °F 27.7 °F 32.0 °F 93% 30.01 in 2.5 mi WSW 6.9 mph - N/A   Overcast
3:14 PM 34.0 °F 27.2 °F 32.0 °F 92% 30.02 in 3.0 mi West 8.1 mph - N/A   Overcast
3:34 PM 34.0 °F 28.8 °F 32.0 °F 92% 30.03 in 4.0 mi West 5.8 mph - N/A   Overcast
3:54 PM 33.8 °F 23.9 °F 31.3 °F 90% 30.04 in 4.0 mi WNW 15.0 mph 21.9 mph 0.01 in   Overcast
4:14 PM 32.0 °F 21.6 °F 29.1 °F 89% 30.07 in 5.0 mi WNW 15.0 mph 21.9 mph N/A   Overcast
4:34 PM 31.5 °F 19.8 °F 27.7 °F 86% 30.08 in 3.0 mi NW 18.4 mph 24.2 mph N/A   Overcast
4:54 PM 30.6 °F 19.4 °F 26.2 °F 84% 30.09 in 7.0 mi WNW 16.1 mph 26.5 mph N/A   Overcast
5:14 PM 30.2 °F 18.5 °F 26.2 °F 85% 30.10 in 7.0 mi WNW 17.3 mph 25.3 mph N/A   Overcast
5:34 PM 28.9 °F 16.1 °F 24.3 °F 83% 30.12 in 7.0 mi NW 19.6 mph 23.0 mph N/A   Overcast
5:54 PM 28.4 °F 15.4 °F 23.5 °F 82% 30.13 in 7.0 mi NW 19.6 mph 26.5 mph N/A   Overcast
6:14 PM 27.5 °F 15.4 °F 22.3 °F 81% 30.15 in 7.0 mi NW 16.1 mph 21.9 mph N/A   Overcast
6:34 PM 27.1 °F 15.4 °F 21.9 °F 81% 30.15 in 7.0 mi WNW 15.0 mph - N/A   Overcast
6:54 PM 26.6 °F 15.2 °F 21.7 °F 82% 30.17 in 7.0 mi WNW 13.8 mph 19.6 mph N/A   Overcast
7:14 PM 26.6 °F 14.3 °F 21.2 °F 80% 30.19 in 7.0 mi WNW 16.1 mph - N/A   Overcast
7:34 PM 26.2 °F 12.6 °F 21.2 °F 81% 30.20 in 7.0 mi WNW 19.6 mph 23.0 mph N/A   Overcast
7:54 PM 26.1 °F 16.2 °F 21.2 °F 82% 30.20 in 5.0 mi WNW 10.4 mph - N/A   Overcast
8:14 PM 25.7 °F 14.0 °F 21.2 °F 83% 30.21 in 5.0 mi WNW 13.8 mph - N/A   Overcast
8:34 PM 25.7 °F 14.0 °F 21.2 °F 83% 30.21 in 5.0 mi WNW 13.8 mph - N/A   Overcast
8:54 PM 25.7 °F 14.0 °F 21.6 °F 84% 30.23 in 5.0 mi WNW 13.8 mph - N/A   Overcast
9:14 PM 26.1 °F 15.0 °F 21.7 °F 84% 30.23 in 5.0 mi WNW 12.7 mph - N/A   Overcast
9:34 PM 26.1 °F 14.5 °F 21.9 °F 84% 30.23 in 5.0 mi WNW 13.8 mph - N/A   Overcast
10:14 PM 26.4 °F 15.5 °F 22.5 °F 85% 30.25 in 5.0 mi WNW 12.7 mph - N/A   Overcast
10:53 PM 26.6 °F 15.2 °F 22.6 °F 85% 30.27 in 5.0 mi WNW 13.8 mph - N/A   Overcast
11:14 PM 27.1 °F 16.9 °F 22.8 °F 84% 30.27 in 5.0 mi WNW 11.5 mph - N/A   Overcast
11:34 PM 27.3 °F 17.7 °F 23.0 °F 84% 30.28 in 5.0 mi WNW 10.4 mph - N/A   Overcast
11:54 PM 27.5 °F 18.0 °F 23.0 °F 83% 30.29 in 5.0 mi WNW 10.4 mph - N/A   Overcast